CW3467 Sant Marti de Canals ES current weather conditions

sailwx.info

Wind from 157

Air temperature 15.6° C
Dewpoint 13.9° C

Last reported at 2017-Oct-18 13:03 UTC.
Time now 2017-Oct-18 13:28 UTC

Location: N 42°14' E 000°59'.
View on Google Maps.

See reports from other nearby stations

  
Tides and Currents Weather Stations Pressure Air Temp Water Temp Dewpoint Dewpoint Depression Visibility Wind Speed Wind Dir Waves Ship Positions
date/time (UTC)wind fromknots sea level pressurealtimeterstation pressurevisibilityair tempwater tempwave heightnotes
2017-Oct-18 13:03 157 15.6
2017-Oct-18 12:48 201 15.6
2017-Oct-18 12:33 254 0 gusting 3 16.7
2017-Oct-18 12:18 233 17.2
2017-Oct-18 12:04 139 16.7
2017-Oct-18 11:48 253 0 gusting 3 16.7
2017-Oct-18 11:33 316 16.7
2017-Oct-18 11:18 316 16.7
2017-Oct-18 11:03 234 16.1
2017-Oct-18 10:48 274 16.1
2017-Oct-18 10:33 332 15.6
2017-Oct-18 10:18 338 15.0
2017-Oct-18 10:03 276 15.0
2017-Oct-18 09:48 245 13.9
2017-Oct-18 09:33 191 14.4
2017-Oct-18 09:18 225 13.9
2017-Oct-18 09:03 134 0 gusting 2 13.3
2017-Oct-18 08:48 226 13.3
2017-Oct-18 08:33 321 12.8
2017-Oct-18 08:18 015 12.2
2017-Oct-18 08:03 212 12.2
2017-Oct-18 07:48 207 0 gusting 1 12.2
2017-Oct-18 07:33 139 0 gusting 2 12.2
2017-Oct-18 07:18 063 12.2
2017-Oct-18 07:03 022 12.2
2017-Oct-18 06:48 047 12.2
2017-Oct-18 06:33 294 11.7
2017-Oct-18 06:18 044 12.2
2017-Oct-18 06:03 077 0 gusting 4 11.7
2017-Oct-18 05:48 015 12.8
2017-Oct-18 05:33 051 0 gusting 2 12.2
2017-Oct-18 05:18 019 12.2
2017-Oct-18 05:03 285 12.2
2017-Oct-18 04:48 097 12.8
2017-Oct-18 04:33 113 12.2
2017-Oct-18 04:18 131 12.2
2017-Oct-18 04:03 032 12.8
2017-Oct-18 03:47 148 12.8
2017-Oct-18 03:38 128 13.3
2017-Oct-18 03:26 131 13.3
2017-Oct-18 03:02 098 13.3
2017-Oct-18 02:48 112 13.3
2017-Oct-18 02:32 105 13.9
2017-Oct-18 02:17 107 13.9
2017-Oct-18 02:02 155 14.4
2017-Oct-18 01:47 360 15.0
2017-Oct-18 01:32 360 1 gusting 4 15.0
2017-Oct-18 01:17 105 15.0
2017-Oct-18 01:02 352 15.0
2017-Oct-18 00:47 043 1 gusting 5 15.0
2017-Oct-18 00:32 066 0 gusting 2 15.0
2017-Oct-18 00:17 350 1 gusting 4 14.4
2017-Oct-18 00:02 326 0 gusting 3 14.4
2017-Oct-17 23:47 036 0 gusting 3 13.9
2017-Oct-17 23:32 041 0 gusting 2 13.3
2017-Oct-17 23:17 233 2 gusting 6 13.9
2017-Oct-17 23:02 147 13.9
2017-Oct-17 22:47 008 14.4
2017-Oct-17 22:32 006 14.4
2017-Oct-17 22:17 049 14.4
2017-Oct-17 22:02 344 14.4
2017-Oct-17 21:47 341 15.0
2017-Oct-17 21:32 344 15.0
2017-Oct-17 21:17 030 15.0
2017-Oct-17 21:02 049 15.0
2017-Oct-17 20:47 006 0 gusting 2 15.0
2017-Oct-17 20:32 044 15.0
2017-Oct-17 20:17 051 15.6
2017-Oct-17 20:02 025 16.1
2017-Oct-17 19:47 056 16.7
2017-Oct-17 19:32 132 1 gusting 5 16.7
2017-Oct-17 19:17 103 0 gusting 6 17.2
2017-Oct-17 19:02 096 3 gusting 7 17.2
2017-Oct-17 18:47 129 3 gusting 10 17.8
2017-Oct-17 18:32 139 5 gusting 12 17.8
2017-Oct-17 18:17 125 7 gusting 13 18.3
2017-Oct-17 18:02 123 8 gusting 14 18.9
2017-Oct-17 17:47 148 4 gusting 6 19.4
2017-Oct-17 17:32 142 3 gusting 6 19.4
2017-Oct-17 17:17 127 2 gusting 5 19.4
2017-Oct-17 17:02 172 2 gusting 9 20.0
2017-Oct-17 16:47 142 3 gusting 7 21.1
2017-Oct-17 16:32 222 2 gusting 7 21.7
2017-Oct-17 16:17 157 2 gusting 5 22.2
2017-Oct-17 16:02 148 2 gusting 6 22.8
2017-Oct-17 15:47 208 2 gusting 7 22.8
2017-Oct-17 15:32 237 1 gusting 7 22.8
2017-Oct-17 15:17 150 5 gusting 8 22.8
2017-Oct-17 15:02 223 6 gusting 11 23.3
2017-Oct-17 14:47 181 1 gusting 8 22.8
2017-Oct-17 14:31 208 3 gusting 7 23.3
2017-Oct-17 14:16 190 1 gusting 6 23.3
2017-Oct-17 14:02 228 1 gusting 5 22.8
2017-Oct-17 13:47 210 1 gusting 6 23.3
2017-Oct-17 13:31 240 0 gusting 2 23.3
2017-Oct-17 13:16 133 22.8
2017-Oct-17 13:01 285 0 gusting 3 22.2
2017-Oct-17 12:47 267 0 gusting 5 21.7
2017-Oct-17 12:31 288 1 gusting 6 21.7
2017-Oct-17 12:16 193 1 gusting 6 21.1
2017-Oct-17 12:01 287 3 gusting 6 20.0
2017-Oct-17 11:46 242 20.6
2017-Oct-17 11:31 274 1 gusting 4 20.0
2017-Oct-17 11:16 226 0 gusting 5 19.4
2017-Oct-17 11:01 266 0 gusting 4 18.9
2017-Oct-17 10:46 274 0 gusting 2 18.3
2017-Oct-17 10:31 250 17.8
2017-Oct-17 10:16 250 1 gusting 3 17.8
2017-Oct-17 10:01 218 17.8
2017-Oct-17 09:46 246 16.7
2017-Oct-17 09:31 264 16.7
2017-Oct-17 09:15 227 0 gusting 2 16.1
2017-Oct-17 09:00 228 15.6
2017-Oct-17 08:46 238 15.6
2017-Oct-17 08:30 135 14.4
2017-Oct-17 08:15 227 13.3
2017-Oct-17 08:00 103 12.8
2017-Oct-17 07:45 103 13.3
2017-Oct-17 07:30 103 12.2
2017-Oct-17 07:15 103 10.6
2017-Oct-17 07:00 103 10.0
2017-Oct-17 06:45 103 10.0
2017-Oct-17 06:30 120 9.4
2017-Oct-17 06:15 121 10.0
2017-Oct-17 06:00 122 10.0
2017-Oct-17 05:45 121 9.4
2017-Oct-17 05:30 122 10.0
2017-Oct-17 05:15 107 10.0
2017-Oct-17 05:00 121 10.0
2017-Oct-17 04:45 043 10.0
2017-Oct-17 04:30 281 10.6
2017-Oct-17 04:15 115 0 gusting 1 11.1
2017-Oct-17 04:00 093 0 gusting 1 10.6
2017-Oct-17 03:45 107 0 gusting 1 10.6
2017-Oct-17 03:33 281 11.1
2017-Oct-17 03:22 117 11.1
2017-Oct-17 03:00 117 11.1
2017-Oct-17 02:45 135 11.1
2017-Oct-17 02:30 253 11.7
2017-Oct-17 02:15 060 11.7
2017-Oct-17 02:00 110 11.7
2017-Oct-17 01:45 274 11.7
2017-Oct-17 01:30 274 12.2
2017-Oct-17 01:15 274 12.2
2017-Oct-17 01:00 274 12.2
2017-Oct-17 00:45 274 12.8
2017-Oct-17 00:32 274 13.3
2017-Oct-17 00:23 110 13.3
2017-Oct-17 00:06 102 13.3
2017-Oct-16 23:49 102 13.9
2017-Oct-16 23:33 077 0 gusting 1 13.9
2017-Oct-16 23:16 112 14.4
2017-Oct-16 23:00 112 14.4
2017-Oct-16 22:46 096 15.0
2017-Oct-16 22:29 094 0 gusting 1 14.4
2017-Oct-16 22:14 351 15.0
2017-Oct-16 21:59 039 15.6
2017-Oct-16 21:44 041 15.6
2017-Oct-16 21:29 038 0 gusting 1 15.6
2017-Oct-16 21:14 018 0 gusting 1 15.6
2017-Oct-16 20:59 164 16.7
2017-Oct-16 20:44 110 1 gusting 3 16.7
2017-Oct-16 20:29 124 1 gusting 2 17.2
2017-Oct-16 20:14 131 17.2
2017-Oct-16 19:59 131 17.8
2017-Oct-16 19:44 107 0 gusting 2 18.3
2017-Oct-16 19:29 104 18.3
2017-Oct-16 19:14 048 0 gusting 1 18.9
2017-Oct-16 18:59 044 0 gusting 2 18.9
2017-Oct-16 18:44 046 0 gusting 1 19.4
2017-Oct-16 18:29 027 0 gusting 1 20.0
2017-Oct-16 18:14 347 20.0
2017-Oct-16 17:59 342 20.6
2017-Oct-16 17:44 150 1 gusting 6 21.1
2017-Oct-16 17:29 099 4 gusting 6 21.1
2017-Oct-16 17:14 140 6 gusting 11 21.7
2017-Oct-16 16:59 184 6 gusting 9 22.2
2017-Oct-16 16:44 102 5 gusting 8 23.3
2017-Oct-16 16:29 178 5 gusting 9 23.9
2017-Oct-16 16:14 142 4 gusting 8 24.4
2017-Oct-16 15:59 149 4 gusting 7 25.0
2017-Oct-16 15:44 221 2 gusting 6 25.0
2017-Oct-16 15:29 210 2 gusting 6 25.6
2017-Oct-16 15:14 141 2 gusting 5 25.0
2017-Oct-16 14:59 218 1 gusting 6 25.6
2017-Oct-16 14:44 217 2 gusting 6 25.0
2017-Oct-16 14:29 230 2 gusting 7 25.6
2017-Oct-16 14:14 236 4 gusting 8 25.0
2017-Oct-16 13:59 253 1 gusting 6 25.0
2017-Oct-16 13:44 225 2 gusting 6 24.4
2017-Oct-16 13:29 274 2 gusting 9 23.9
2017-Oct-16 13:14 215 3 gusting 6 23.9